TimeCST,TemperatureF,Dew PointF,Humidity,Sea Level PressureIn,VisibilityMPH,Wind Direction,Wind SpeedMPH,Gust SpeedMPH,PrecipitationIn,Events,Conditions,WindDirDegrees,DateUTC
12:15 AM,1.8,-3.1,80,30.39,10.0,NW,3.5,-,N/A,,Clear,310,2013-12-24 06:15:00
12:35 AM,2.1,-2.4,81,30.39,10.0,Calm,Calm,-,N/A,,Mostly Cloudy,0,2013-12-24 06:35:00
12:55 AM,0.3,-4.7,79,30.39,10.0,Calm,Calm,-,N/A,,Scattered Clouds,0,2013-12-24 06:55:00
1:15 AM,-1.3,-5.6,82,30.39,10.0,Calm,Calm,-,N/A,,Clear,0,2013-12-24 07:15:00
1:35 AM,-4.0,-9.0,79,30.40,10.0,Calm,Calm,-,N/A,,Clear,0,2013-12-24 07:35:00
1:55 AM,-4.2,-8.9,80,30.41,10.0,West,3.5,-,N/A,,Clear,260,2013-12-24 07:55:00
2:15 AM,-2.9,-7.6,80,30.42,10.0,WSW,4.6,-,N/A,,Clear,250,2013-12-24 08:15:00
2:35 AM,-2.2,-7.4,78,30.43,10.0,WSW,3.5,-,N/A,,Clear,250,2013-12-24 08:35:00
2:55 AM,-4.4,-9.8,78,30.43,10.0,West,3.5,-,N/A,,Clear,270,2013-12-24 08:55:00
3:15 AM,-2.9,-8.1,78,30.43,10.0,Calm,Calm,-,N/A,,Clear,0,2013-12-24 09:15:00
3:35 AM,-4.5,-9.9,78,30.43,10.0,West,3.5,-,N/A,,Clear,270,2013-12-24 09:35:00
3:55 AM,-3.6,-8.5,80,30.43,10.0,West,3.5,-,N/A,,Clear,270,2013-12-24 09:55:00
4:15 AM,-4.0,-9.0,79,30.43,10.0,West,4.6,-,N/A,,Clear,270,2013-12-24 10:15:00
4:35 AM,-3.5,-8.5,79,30.43,10.0,West,3.5,-,N/A,,Clear,270,2013-12-24 10:35:00
4:55 AM,-4.5,-10.1,77,30.43,10.0,West,3.5,-,N/A,,Clear,270,2013-12-24 10:55:00
5:15 AM,-4.5,-9.8,78,30.44,10.0,Calm,Calm,-,N/A,,Clear,0,2013-12-24 11:15:00
5:35 AM,-6.7,-12.6,75,30.44,10.0,Calm,Calm,-,N/A,,Clear,0,2013-12-24 11:35:00
5:55 AM,-8.1,-13.5,77,30.44,7.0,Calm,Calm,-,N/A,,Clear,0,2013-12-24 11:55:00
6:15 AM,-9.0,-14.8,76,30.45,5.0,Calm,Calm,-,N/A,,Haze,0,2013-12-24 12:15:00
6:35 AM,-7.6,-13.4,76,30.45,10.0,Calm,Calm,-,N/A,,Clear,0,2013-12-24 12:35:00
6:55 AM,-9.6,-15.9,74,30.45,7.0,Calm,Calm,-,N/A,,Clear,0,2013-12-24 12:55:00
7:15 AM,-9.2,-14.8,76,30.45,10.0,Calm,Calm,-,N/A,,Clear,0,2013-12-24 13:15:00
7:35 AM,-8.5,-14.3,76,30.46,10.0,Calm,Calm,-,N/A,,Clear,0,2013-12-24 13:35:00
7:55 AM,-9.4,-15.3,75,30.46,10.0,Calm,Calm,-,N/A,,Clear,0,2013-12-24 13:55:00
8:15 AM,-8.0,-13.5,77,30.47,10.0,Calm,Calm,-,N/A,,Clear,0,2013-12-24 14:15:00
8:35 AM,-7.1,-12.8,76,30.47,10.0,Calm,Calm,-,N/A,,Clear,0,2013-12-24 14:35:00
8:55 AM,-6.2,-11.9,76,30.48,7.0,Calm,Calm,-,N/A,,Clear,0,2013-12-24 14:55:00
9:15 AM,-3.8,-8.9,79,30.48,7.0,Calm,Calm,-,N/A,,Clear,0,2013-12-24 15:15:00
9:35 AM,-0.9,-6.0,79,30.48,7.0,Calm,Calm,-,N/A,,Clear,0,2013-12-24 15:35:00
9:55 AM,1.4,-3.1,81,30.48,10.0,Calm,Calm,-,N/A,,Clear,0,2013-12-24 15:55:00
10:15 AM,3.9,-0.9,80,30.48,10.0,Calm,Calm,-,N/A,,Clear,0,2013-12-24 16:15:00
10:35 AM,4.8,0.1,81,30.48,10.0,Calm,Calm,-,N/A,,Clear,0,2013-12-24 16:35:00
10:55 AM,5.7,1.4,82,30.47,10.0,Calm,Calm,-,N/A,,Clear,0,2013-12-24 16:55:00
11:15 AM,6.8,1.2,78,30.47,10.0,Calm,Calm,-,N/A,,Clear,0,2013-12-24 17:15:00
11:35 AM,9.5,2.8,74,30.46,10.0,Calm,Calm,-,N/A,,Clear,0,2013-12-24 17:35:00
11:55 AM,13.1,3.0,64,30.46,10.0,Calm,Calm,-,N/A,,Clear,0,2013-12-24 17:55:00
12:15 PM,13.1,3.2,65,30.45,10.0,ESE,4.6,-,N/A,,Clear,110,2013-12-24 18:15:00
12:35 PM,14.7,4.1,63,30.44,10.0,East,4.6,-,N/A,,Clear,100,2013-12-24 18:35:00
12:55 PM,15.4,4.3,61,30.43,10.0,SE,4.6,-,N/A,,Clear,130,2013-12-24 18:55:00
1:15 PM,15.8,4.6,61,30.41,10.0,SE,4.6,-,N/A,,Clear,130,2013-12-24 19:15:00
1:35 PM,17.2,4.1,56,30.41,10.0,SE,6.9,-,N/A,,Clear,140,2013-12-24 19:35:00
1:55 PM,17.4,4.3,56,30.41,10.0,SE,6.9,-,N/A,,Clear,140,2013-12-24 19:55:00
2:15 PM,16.7,3.2,55,30.41,10.0,South,5.8,-,N/A,,Clear,170,2013-12-24 20:15:00
2:35 PM,16.5,2.7,55,30.41,10.0,SSE,6.9,-,N/A,,Clear,160,2013-12-24 20:35:00
2:55 PM,15.8,2.5,56,30.40,10.0,SE,5.8,-,N/A,,Clear,130,2013-12-24 20:55:00
3:15 PM,14.7,2.3,58,30.40,10.0,SE,6.9,-,N/A,,Clear,130,2013-12-24 21:15:00
3:35 PM,13.5,2.1,61,30.41,10.0,SE,5.8,-,N/A,,Clear,140,2013-12-24 21:35:00
3:55 PM,10.4,1.2,66,30.40,10.0,ESE,6.9,-,N/A,,Clear,120,2013-12-24 21:55:00
4:15 PM,7.5,-0.4,70,30.39,10.0,ESE,5.8,-,N/A,,Clear,110,2013-12-24 22:15:00
4:35 PM,8.4,1.4,73,30.38,10.0,ESE,4.6,-,N/A,,Clear,120,2013-12-24 22:35:00
4:55 PM,6.4,-0.2,74,30.39,10.0,Calm,Calm,-,N/A,,Clear,0,2013-12-24 22:55:00
5:15 PM,4.6,-0.8,78,30.39,10.0,SE,3.5,-,N/A,,Clear,130,2013-12-24 23:15:00
5:35 PM,5.0,0.7,82,30.38,10.0,SE,4.6,-,N/A,,Clear,130,2013-12-24 23:35:00
5:55 PM,6.6,0.9,77,30.38,10.0,Calm,Calm,-,N/A,,Clear,0,2013-12-24 23:55:00
6:15 PM,6.4,0.3,76,30.38,10.0,Calm,Calm,-,N/A,,Clear,0,2013-12-25 00:15:00
6:35 PM,7.2,1.2,77,30.37,10.0,SE,4.6,-,N/A,,Scattered Clouds,140,2013-12-25 00:35:00
6:55 PM,8.2,1.4,74,30.37,10.0,SE,3.5,-,N/A,,Overcast,130,2013-12-25 00:55:00
7:15 PM,8.4,1.4,73,30.36,10.0,SE,5.8,-,N/A,,Mostly Cloudy,140,2013-12-25 01:15:00
7:35 PM,8.6,1.9,74,30.36,10.0,SE,3.5,-,N/A,,Mostly Cloudy,140,2013-12-25 01:35:00
7:55 PM,9.0,2.1,74,30.36,10.0,SSE,5.8,-,N/A,,Overcast,160,2013-12-25 01:55:00
8:15 PM,9.1,2.1,73,30.35,10.0,SSE,5.8,-,N/A,,Overcast,160,2013-12-25 02:15:00
8:35 PM,9.1,2.3,74,30.34,10.0,SE,5.8,-,N/A,,Overcast,140,2013-12-25 02:35:00
8:55 PM,9.1,2.7,75,30.33,10.0,SSE,4.6,-,N/A,,Overcast,150,2013-12-25 02:55:00
9:15 PM,9.3,3.0,76,30.33,10.0,SSE,5.8,-,N/A,,Overcast,160,2013-12-25 03:15:00
9:35 PM,9.5,3.2,76,30.31,7.0,SSE,5.8,-,N/A,,Overcast,160,2013-12-25 03:35:00
9:55 PM,9.9,3.7,76,30.31,10.0,SSE,5.8,-,N/A,,Overcast,160,2013-12-25 03:55:00
10:15 PM,9.9,3.9,77,30.29,7.0,SSE,6.9,-,N/A,Snow,Light Snow,150,2013-12-25 04:15:00
10:35 PM,10.0,4.1,77,30.29,5.0,SSE,5.8,-,N/A,Snow,Light Snow,150,2013-12-25 04:35:00
10:55 PM,10.4,5.0,79,30.27,3.0,SE,6.9,-,N/A,Snow,Light Snow,140,2013-12-25 04:55:00
11:15 PM,10.4,5.4,80,30.26,1.8,SSE,8.1,-,N/A,Snow,Light Snow,160,2013-12-25 05:15:00
11:35 PM,10.4,5.5,81,30.26,2.0,South,8.1,-,N/A,Snow,Light Snow,170,2013-12-25 05:35:00
11:55 PM,10.4,5.7,81,30.25,1.5,South,6.9,-,N/A,Snow,Light Snow,170,2013-12-25 05:55:00